Find Starlink 31324

NORAD ID: 58976 Int'l Des: 2024-031 Owner: SPXS Country: US Constellation: starlink operational
LEOCIRCULAR

实时位置

正在加载3D地球...

关于 Starlink 31324

正在加载描述...

即将过境

Passes for default location (London). Set your location on the main map for personalized predictions.

高度历史

Loading altitude history...

两行轨道根数

1 58976U 24031M 26125.06544318 .00002304 00000-0 89872-4 0 9999
2 58976 53.1596 34.8971 0001226 120.4133 239.6989 15.30201841125147
Epoch: May 5, 2026 • Age: 16 hours

当前状态

高度 481.1 km
速度 7.63 km/s
星下点 53.26°N, 9.6°W
发射日期 Feb 15, 2024
运行时间 2.2 years
类型 internet

技术详情

分类 Payload
质量 730.00 kg
干质量 700.00 kg
总质量 730.00 kg
长度 0.30 m
直径 4.10 m
跨度 29.00 m
形状 Box + pan
制造商 SPXS
平台类型 Starlink V2M
阶段状态 In Orbit
所有者/国家 SPXS/US

Most Searched